Weather History for McCook, NE

Change the Weather History Date:

Tuesday, February 26, 2013

  Actual Average Record
Temperature  
Mean Temperature 20 °F 34 °F  
Max Temperature 35 °F 48 °F 74 °F (1933)
Min Temperature 5 °F 20 °F -12 °F (1934)
Degree Days  
Heating Degree Days 46    
Moisture  
Dew Point 14 °F    
Average Humidity 79    
Maximum Humidity 95    
Minimum Humidity 61    
Precipitation  
Precipitation 0.00 in 0.03 in 0.58 in (1958)
Month to date precipitation 0.54 0.57  
Year to date precipitation 0.59 1.08  
Sea Level Pressure  
Sea Level Pressure 29.98 in    
Wind  
Wind Speed 5 mph (WNW)    
Max Wind Speed 13 mph    
Max Gust Speed -    
Visibility 10 miles    
Events      
T = Trace of Precipitation, MM = Missing Value Source: NWS Daily Summary

Daily Weather History Graph

Daily Weather History Graph

Search for Another Location

Airport:

Trip Planner

Search our weather history database for the weather conditions in past years. The results will help you decide how hot, cold, wet, or windy it might be!

Date:

Astronomy

Feb. 26, 2013 Rise Set
Actual Time 7:19 AM CST 6:31 PM CST
Civil Twilight 6:52 AM CST 6:58 PM CST
Nautical Twilight 6:21 AM CST 7:29 PM CST
Astronomical Twilight 5:49 AM CST 8:01 PM CST
Moon 7:49 PM CST (2/26) 7:23 AM CST (2/26)
Length of Visible Light 12h 05m
Length of Day
11h 11m
Full, 99% of the Moon is Illuminated
Feb 26
Full
Mar 4
Last Quarter
Mar 11
New
Mar 19
First Quarter
Mar 27
Full

Hourly Weather History & Observations

Time (CST) Temp. Windchill Dew Point Humidity Pressure Visibility Wind Dir Wind Speed Gust Speed Precip Events Conditions
12:53 AM 12.0 °F - 10.9 °F 95% 30.01 in 10.0 mi Calm Calm - N/A   Clear
1:53 AM 12.9 °F -0.9 °F 10.0 °F 88% 29.99 in 10.0 mi WNW 11.5 mph - N/A   Clear
2:53 AM 14.0 °F 5.1 °F 10.9 °F 88% 29.97 in 9.0 mi West 5.8 mph - N/A   Clear
3:53 AM 9.0 °F 2.4 °F 6.1 °F 88% 29.96 in 8.0 mi South 3.5 mph - N/A   Clear
4:53 AM 10.0 °F -3.7 °F 6.1 °F 84% 29.95 in 10.0 mi West 10.4 mph - N/A   Clear
5:53 AM 8.1 °F -0.5 °F 5.0 °F 87% 29.95 in 10.0 mi West 4.6 mph - N/A   Clear
6:53 AM 9.0 °F -2.2 °F 3.9 °F 80% 29.96 in 10.0 mi WSW 6.9 mph - N/A   Clear
7:53 AM 5.0 °F -5.6 °F 1.9 °F 87% 29.97 in 8.0 mi West 5.8 mph - N/A   Clear
8:53 AM 9.0 °F -6.6 °F 5.0 °F 84% 29.99 in 8.0 mi West 12.7 mph - N/A   Clear
9:53 AM 12.9 °F 5.2 °F 8.1 °F 81% 29.98 in 9.0 mi West 4.6 mph - N/A   Clear
10:53 AM 17.1 °F 11.7 °F 12.0 °F 81% 29.97 in 9.0 mi WNW 3.5 mph - N/A   Clear
11:53 AM 23.0 °F 17.0 °F 15.1 °F 72% 29.95 in 10.0 mi WNW 4.6 mph - N/A   Clear
12:53 PM 27.0 °F 21.6 °F 19.0 °F 72% 29.94 in 10.0 mi WNW 4.6 mph - N/A   Clear
1:53 PM 30.0 °F 25.2 °F 21.9 °F 72% 29.93 in 10.0 mi NW 4.6 mph - N/A   Clear
2:53 PM 32.0 °F 25.6 °F 21.9 °F 66% 29.91 in 10.0 mi NW 6.9 mph - N/A   Clear
3:53 PM 33.1 °F 30.0 °F 23.0 °F 66% 29.93 in 10.0 mi NW 3.5 mph - N/A   Clear
4:53 PM 34.0 °F 29.8 °F 21.9 °F 61% 29.94 in 10.0 mi NW 4.6 mph - N/A   Clear
5:53 PM 32.0 °F 28.7 °F 21.9 °F 66% 29.96 in 10.0 mi East 3.5 mph - N/A   Clear
6:53 PM 30.9 °F - 21.0 °F 67% 30.00 in 10.0 mi Calm Calm - N/A   Clear
7:53 PM 28.0 °F - 21.0 °F 75% 30.03 in 9.0 mi Calm Calm - N/A   Clear
8:53 PM 23.0 °F 13.1 °F 19.0 °F 85% 30.05 in 9.0 mi WNW 9.2 mph - N/A   Clear
9:53 PM 23.0 °F 13.9 °F 19.0 °F 85% 30.06 in 10.0 mi WNW 8.1 mph - N/A   Partly Cloudy
10:53 PM 23.0 °F - 18.0 °F 81% 30.07 in 8.0 mi North - - N/A   Unknown
11:53 PM 21.9 °F 11.0 °F 18.0 °F 85% 30.07 in 10.0 mi WNW 10.4 mph - N/A   Clear